Showing default

ISTSAT-1, 60238

Orbit data source: Space-Track

ISTSAT-1, 60238 is a Portuguese payload satellite in LEO that was launched on Tue, 09 Jul 2024 UTC via an ARIANE 62 launch vehicle from the French Guiana (FRGUI). Payload-class satellites include a variety of spacecraft equipped with specific instruments for various scientific and technological missions. These include communications satellites like Starlink; space stations such as the ISS; scientific satellites like the Hubble; Earth observation satellites from companies like Planet Labs, Umbra, and HawkEye 360; GPS; miniature CubeSats for education and research; and military/defense satellites.

Loading next visibility...
Identifier
60238, 2024-128D
Orbit
LEO
Country
Flag of PTPT / POR
Related business
Manufacturer
ISTL
Mission
Operational Amateur Technology
Bus & Motor
CUBESAT 1U, Unknown motor
Mass
1 kg wet, 1 kg dry
Launch date (UTC)
2024-07-09 (1 year ago)
Launch vehicle
ARIANE 62
Launch site
French Guiana (FRGUI)
Object type
Payload
Rocket body
Debris
Shape & HBR
Box, 0.1 m
Radar Cross Section
0.015 m², Small (<0.1 m²)

Expand to show TLE details & history
Last TLE update: 17 hours ago

TLE from 17 hours ago
0 ISTSAT-1
1 60238U 24128D   25258.11902709  .00005973  00000-0  40281-3 0  9999
2 60238  61.9893  95.3283 0055048  78.1050 282.6208 15.06521706 64944
Epoch: 2025-09-15T02:51Z
TLE epoch observation values (Epoch: 2025-09-15T02:51:23.94Z)
Latitude
-0.00003°
Longitude
58.15027°
Altitude
540.482 km
Speed
7.597 km/s
True Right ascension
06h 21m 18s
True Declination
0° 00' 00"
Sunlit
Object was in daylight at epoch
Visualization orbit readout
Latitude
Unknown
Longitude
Unknown
Altitude
Unknown
Speed
Unknown
Apparent Right ascension
Unknown
Apparent Declination
Unknown
Sunlit
N/A
Visualization observer readout
Local Sidereal Time
12:25:06
Azimuth
Unknown
Elevation
Unknown
Doppler factor
Unknown
Orbital elements
Apogee altitude
583.882 km
Perigee altitude
507.652 km
Semi-major axis
6,923.904 km
Eccentricity
0.0055
Inclination
61.9893°
RAAN
95.3283°
Arg. of periapsis
78.105°
True anomaly
282.00432°
Mean anomaly
282.6208°
Eccentric anomaly
282.31265°
Mean motion
3.76718 °/min
Orbital period
95.56 mins
BSTAR
0.00040281
Loading maneuver chart data...
Computing Atmospheric mass density...
Loading historical data...
Loading historical data...
Loading historical data...
Loading historical data...
Loading historical data...
Loading historical data...
Loading historical data...

Documentation

Showing up to 5 results
|